FW5196 Weather Reports


time (UTC)temp
F
wind
direction
speed
knots
gust
knots
rain 1hr
in
rain 24hr
in
rain mn
in
humidity
%
barometer
mb
20260507140010 58 55 0.0 0.0 0.00 0.00 0.00 93 1015.3
20260507134510 57 55 0.0 0.0 0.00 0.00 0.00 93 1015.2
20260507133012 57 55 0.0 0.0 0.00 0.00 0.00 93 1015.1
20260507131510 56 55 0.0 0.0 0.00 0.00 0.00 93 1015.1
20260507130022 56 55 0.0 0.0 0.00 0.00 0.00 93 1015.1
20260507124515 56 55 0.0 0.0 0.00 0.00 0.00 92 1014.9
20260507123010 56 55 0.0 0.0 0.00 0.00 0.00 92 1014.8
20260507121510 55 55 0.0 0.0 0.00 0.00 0.00 92 1014.8
20260507120010 55 55 0.0 0.0 0.00 0.00 0.00 92 1014.8
20260507114510 55 55 0.0 0.0 0.00 0.00 0.00 92 1014.8
20260507113014 55 55 0.0 0.0 0.00 0.00 0.00 92 1014.8
20260507111515 54 55 0.0 0.0 0.00 0.00 0.00 92 1014.9
20260507110024 54 55 0.0 0.0 0.00 0.00 0.00 91 1015.0
20260507104510 55 55 0.0 0.0 0.00 0.00 0.00 91 1015.0
20260507103010 55 55 0.0 0.0 0.00 0.00 0.00 91 1015.1
20260507101510 55 55 0.0 0.0 0.00 0.00 0.00 91 1015.2
20260507100018 55 55 0.0 0.0 0.00 0.00 0.00 91 1015.2
20260507094510 55 55 0.0 0.0 0.00 0.00 0.00 91 1015.4
20260507093022 55 55 0.0 0.0 0.00 0.00 0.00 90 1015.5
20260507091515 55 55 0.0 0.0 0.00 0.00 0.00 90 1015.5
20260507084518 56 55 0.0 0.0 0.00 0.00 0.00 90 1015.8
20260507083012 56 55 0.0 0.0 0.00 0.00 0.00 90 1015.8
20260507081512 56 55 0.0 0.0 0.00 0.00 0.00 89 1016.1
20260507080011 56 55 0.0 0.0 0.00 0.00 0.00 89 1016.1
20260507074511 56 55 0.0 0.0 0.00 0.00 0.00 89 1016.1
20260507073012 57 55 0.0 0.9 0.00 0.00 0.00 89 1016.2
20260507071512 57 55 0.0 0.0 0.00 0.00 0.00 89 1016.3
20260507070015 57 55 0.0 0.0 0.00 0.00 0.00 88 1016.3
20260507064511 57 55 0.0 0.9 0.00 0.00 0.00 88 1016.4
20260507063024 58 55 0.0 0.9 0.00 0.00 0.00 88 1016.5
20260507061512 58 55 0.0 0.9 0.00 0.00 0.00 87 1016.4
20260507060020 58 55 0.0 0.0 0.00 0.00 0.00 87 1016.5
20260507054512 58 55 0.0 0.9 0.00 0.00 0.00 86 1016.4
20260507053011 58 55 0.0 0.9 0.00 0.00 0.00 86 1016.3
20260507051512 58 55 0.0 0.0 0.00 0.00 0.00 86 1016.4
20260507050012 59 55 0.0 0.0 0.00 0.00 0.00 85 1016.4
20260507044515 59 55 0.0 0.0 0.00 0.00 0.00 85 1016.4
20260507043012 59 55 0.0 0.9 0.00 0.00 0.00 84 1016.2
20260507041511 59 55 0.0 0.9 0.00 0.00 0.00 83 1016.1
20260507040010 60 55 0.0 0.9 0.00 0.00 0.00 83 1016.1
20260507034527 60 55 0.0 0.0 0.00 0.00 0.00 82 1015.9
20260507033011 61 55 0.0 0.9 0.00 0.00 0.00 81 1015.8
20260507031513 61 55 0.0 0.9 0.00 0.00 0.00 80 1015.7
20260507030013 62 55 0.0 0.9 0.00 0.00 0.00 79 1015.6
20260507024512 63 55 0.0 1.7 0.00 0.00 0.00 78 1015.4
20260507023016 64 55 0.0 1.7 0.00 0.00 0.00 77 1015.3
20260507021512 64 55 0.9 3.5 0.00 0.00 0.00 76 1015.3
20260507020025 65 55 0.9 4.3 0.00 0.00 0.00 75 1015.1
20260507014511 66 55 0.9 5.2 0.00 0.00 0.00 74 1015.1
20260507013019 67 55 0.9 1.7 0.00 0.00 0.00 73 1015.1
20260507011512 68 55 1.7 4.3 0.00 0.00 0.00 72 1015.1
20260507010012 69 55 0.9 6.1 0.00 0.00 0.00 71 1015.1
20260507004511 70 55 3.5 6.1 0.00 0.00 0.00 68 1015.1
20260507003012 71 55 0.9 5.2 0.00 0.00 0.00 68 1015.0
20260507001511 71 55 2.6 7.0 0.00 0.00 0.00 67 1014.8
20260507000015 72 55 2.6 6.1 0.00 0.00 0.00 67 1014.8
20260506234518 74 55 1.7 5.2 0.00 0.00 0.00 62 1014.8
20260506233014 76 55 3.5 7.0 0.00 0.00 0.00 60 1014.8
20260506231512 77 55 0.9 7.0 0.00 0.00 0.00 59 1014.8
20260506230011 74 55 1.7 8.7 0.00 0.00 0.00 61 1014.9
20260506224511 77 55 1.7 5.2 0.00 0.00 0.00 59 1015.1
20260506223011 77 55 1.7 8.7 0.00 0.00 0.00 58 1015.2
20260506221511 78 55 1.7 6.1 0.00 0.00 0.00 57 1015.2
20260506220021 80 55 3.5 8.7 0.00 0.00 0.00 59 1015.4
20260506214511 80 55 1.7 7.8 0.00 0.00 0.00 58 1015.5
20260506213010 79 55 2.6 6.1 0.00 0.00 0.00 57 1015.6
20260506211516 78 55 2.6 9.6 0.00 0.00 0.00 60 1015.6
20260506210021 79 55 3.5 7.0 0.00 0.00 0.00 56 1015.7
20260506204511 77 55 2.6 9.6 0.00 0.00 0.00 60 1015.8
20260506203010 77 55 2.6 7.0 0.00 0.00 0.00 61 1016.0
20260506201510 78 55 3.5 6.1 0.00 0.00 0.00 60 1016.0
20260506200027 75 56 1.7 7.0 0.00 0.00 0.00 59 1016.1
20260506194511 78 55 2.6 6.1 0.00 0.00 0.00 57 1016.3
20260506193010 75 55 2.6 7.0 0.00 0.00 0.00 60 1016.4
20260506191510 73 55 1.7 7.0 0.00 0.00 0.00 65 1016.5
20260506190011 75 55 1.7 7.0 0.00 0.00 0.00 65 1016.5
20260506184510 76 55 1.7 6.1 0.00 0.00 0.00 61 1016.7
20260506183010 74 55 1.7 6.1 0.00 0.00 0.00 63 1016.8
20260506181516 73 55 2.6 6.1 0.00 0.00 0.00 66 1016.8
20260506180016 73 55 0.9 6.1 0.00 0.00 0.00 67 1017.0
20260506174511 71 55 3.5 7.8 0.00 0.00 0.00 67 1017.1
20260506173010 71 55 3.5 7.0 0.00 0.00 0.00 66 1017.2
20260506171510 71 55 1.7 5.2 0.00 0.00 0.00 66 1017.3
20260506170011 69 55 0.9 4.3 0.00 0.00 0.00 67 1017.4
20260506164514 68 55 0.9 5.2 0.00 0.00 0.00 69 1017.4
20260506163011 67 55 0.0 4.3 0.00 0.00 0.00 72 1017.4
20260506161511 65 55 2.6 5.2 0.00 0.00 0.00 78 1017.4
20260506160015 61 55 0.9 4.3 0.00 0.00 0.00 89 1017.4
20260506154510 58 55 0.9 1.7 0.00 0.00 0.00 92 1017.5
20260506153010 57 55 0.9 3.5 0.00 0.00 0.00 93 1017.4
20260506151510 56 55 0.0 4.3 0.00 0.00 0.00 93 1017.5
20260506150010 55 55 0.0 0.0 0.00 0.00 0.00 93 1017.5
20260506144510 55 55 0.0 0.0 0.00 0.01 0.00 93 1017.4
20260506143010 54 55 0.0 0.0 0.00 0.01 0.00 93 1017.4
20260506141509 52 55 0.0 0.0 0.00 0.01 0.00 92 1017.3